Theta_e
341 346 350 352 353 353 353 353 352 352 353 354 354 354 355 355 355 355 355 354 354 353 351 351 350 350 350 350 350 349 348 349 349 347 345 345 344 344 343 342 344 342 343
344 347 348 351 352 352 353 353 353 353 354 354 354 354 354 354 355 355 354 354 353 351 350 350 349 349 349 348 348 348 347 347 347 347 345 345 344 343 343 343 342 342 343
346 346 351 350 351 352 353 354 354 355 355 355 354 354 354 354 354 354 353 353 352 350 350 349 349 348 348 347 347 346 345 345 345 343 342 343 342 343 343 343 341 341 341
348 347 348 348 350 351 352 353 354 355 354 354 354 354 354 354 353 353 352 351 350 349 348 348 348 348 347 346 346 345 344 345 343 342 344 342 340 343 343 342 341 341 341
348 346 349 347 348 350 351 352 352 352 352 352 352 353 353 353 353 352 351 350 349 348 346 347 346 344 343 344 345 345 344 342 340 342 346 346 343 342 341 340 341 341 341
349 347 346 345 347 349 351 351 351 351 350 350 350 352 352 353 352 351 349 349 348 347 344 342 341 339 339 339 339 338 336 336 337 344 349 345 345 341 340 340 339 340 341
349 349 350 344 346 349 350 351 350 349 348 349 350 350 351 351 350 349 348 348 347 346 343 340 338 337 337 337 336 335 335 337 341 346 346 348 348 342 340 339 338 339 340
350 352 350 347 347 347 349 348 346 346 346 347 348 348 349 349 348 347 347 346 345 344 342 340 339 338 336 335 333 335 335 335 337 345 346 348 345 342 340 339 338 338 338
352 352 351 351 351 345 344 343 343 344 344 345 345 345 345 344 344 346 346 345 344 342 340 339 338 336 336 335 333 333 333 333 338 341 342 348 344 343 341 339 338 337 337
349 352 352 350 352 353 353 341 341 342 342 343 343 342 341 341 342 343 344 344 342 341 340 339 337 335 335 333 333 333 333 333 338 338 343 347 344 343 342 340 338 338 337
346 350 352 351 351 353 352 349 342 342 341 341 343 341 339 345 346 345 341 342 342 340 339 338 336 335 333 332 330 331 331 337 340 341 342 340 344 344 344 342 340 339 338
342 346 349 351 351 352 349 352 351 349 349 349 348 348 347 348 346 341 341 341 342 340 339 338 337 335 333 340 337 331 336 336 338 342 343 340 342 344 345 343 342 341 340
342 344 346 350 352 351 349 350 349 349 349 349 351 350 349 348 346 344 343 343 344 342 344 342 341 342 340 342 342 341 339 336 338 340 338 338 340 343 345 344 344 343 342
340 342 346 348 350 351 349 348 349 348 349 349 350 351 349 346 346 343 342 342 343 342 343 344 344 348 345 344 342 339 338 336 336 338 339 337 339 342 344 344 343 341 340
340 342 344 346 348 348 349 348 348 348 346 347 348 348 348 345 345 344 342 342 341 342 343 344 345 344 344 344 343 340 336 335 337 337 338 334 335 339 342 343 344 342 340
343 343 344 345 347 347 347 347 347 346 345 346 344 343 347 347 346 343 342 340 340 341 343 345 345 345 344 346 344 342 339 336 336 337 338 340 331 333 338 341 342 342 341
344 344 344 344 344 344 345 346 345 343 344 342 342 344 345 348 348 344 341 339 339 342 346 346 347 347 345 344 344 344 344 341 337 338 337 338 337 329 331 336 339 340 340
344 343 344 343 344 342 343 345 344 344 344 343 345 347 349 348 347 344 339 339 339 342 344 344 346 345 344 343 343 344 344 343 342 339 337 337 337 337 331 331 334 336 338
344 345 344 344 343 344 345 344 343 344 343 342 343 344 347 347 346 342 339 339 342 342 345 344 344 344 342 341 340 341 343 342 342 340 340 338 338 337 336 331 329 330 333
344 347 347 344 344 345 344 344 342 342 342 341 341 341 344 344 344 342 339 341 344 343 343 344 343 344 343 342 338 337 340 341 341 340 340 340 339 336 336 336 337 335 326
341 344 347 346 346 344 342 341 341 339 340 339 339 340 341 341 341 342 341 343 344 343 343 345 344 343 343 343 338 337 337 338 339 338 337 337 336 336 336 335 335 335 334
333 341 345 347 347 346 344 344 344 342 340 339 339 340 341 341 342 341 342 344 346 344 345 345 343 340 338 338 335 330 327 330 332 335 335 336 333 334 333 332 333 333 333
331 337 342 346 347 347 346 345 344 342 340 337 337 338 340 343 344 344 345 346 346 345 342 343 341 338 333 333 330 327 322 321 326 327 329 330 330 330 330 330 330 330 331
329 337 340 344 346 347 347 344 341 336 334 335 336 339 343 345 344 344 344 343 342 340 336 333 333 332 331 326 329 327 328 328 319 316 323 324 325 324 325 323 322 323 325
327 333 340 342 344 346 346 345 342 339 338 338 339 339 339 339 340 340 339 334 330 328 328 328 330 334 332 330 329 325 322 321 321 316 313 313 317 317 317 317 320 319 317
330 335 340 339 342 345 345 345 343 340 340 338 337 334 328 329 330 331 334 335 333 334 334 332 331 330 328 329 327 325 323 319 314 313 310 310 309 311 314 314 314 314 316
Wind_Speed
16 22 15 13 11 11 10 11 13 13 14 16 18 16 15 15 14 12 12 12 13 13 14 14 13 13 13 13 13 12 12 11 11 10 10 11 10 9 8 7 9 10 9
21 23 16 15 13 13 14 13 14 14 15 17 18 16 14 14 13 12 12 12 12 14 13 14 13 12 12 12 11 11 11 9 9 7 8 11 10 9 10 11 14 10 10
21 22 20 15 15 14 15 16 15 15 16 17 17 15 14 14 13 12 12 12 12 13 13 13 13 12 11 11 10 10 9 8 7 3 5 5 11 8 9 9 9 9 9
20 20 20 16 16 15 15 16 16 17 17 17 17 16 14 13 12 12 11 11 11 13 12 12 13 12 10 9 9 8 8 8 4 4 1 6 9 8 8 8 8 9 10
19 20 19 16 15 16 16 16 16 16 16 16 16 16 14 14 13 12 10 10 11 12 13 12 11 10 9 7 7 6 4 2 2 9 5 5 6 9 7 6 5 7 11
19 19 18 15 15 16 17 17 16 17 16 15 15 16 15 13 13 12 11 10 11 11 13 12 11 9 7 6 5 3 1 2 6 1 2 6 3 8 6 6 7 7 8
18 16 19 12 15 16 16 17 16 16 15 14 13 14 14 14 13 11 12 10 10 11 12 11 10 9 6 5 4 3 2 3 9 2 3 0 6 6 5 5 5 6 7
17 17 18 14 13 15 15 14 15 15 15 14 13 13 13 12 13 12 12 11 10 11 11 11 10 9 7 5 3 2 2 5 7 3 3 1 10 5 4 4 4 6 7
16 16 17 17 15 9 11 11 12 14 14 14 13 13 13 12 12 12 11 12 11 11 11 11 10 9 7 6 4 1 3 4 9 3 3 3 9 4 3 3 4 4 5
16 16 17 17 16 15 14 10 12 13 14 13 12 12 12 10 10 11 11 10 11 10 10 10 10 8 6 4 2 2 4 8 8 4 4 7 8 4 3 3 2 2 3
14 16 17 17 17 16 15 13 11 11 12 12 11 11 13 11 13 13 7 12 9 9 8 8 9 8 6 4 1 2 7 4 4 3 3 12 6 5 4 3 2 0 1
18 17 16 16 17 16 13 15 14 13 13 13 14 15 11 10 10 10 9 8 7 8 7 7 7 7 8 4 6 7 5 4 4 2 1 8 4 6 6 5 4 3 3
19 16 17 16 16 16 13 11 9 9 9 10 14 13 11 8 7 7 7 8 8 9 8 9 9 8 3 2 1 2 1 5 3 3 6 5 4 6 8 8 6 6 5
20 19 18 18 16 16 11 11 11 10 8 9 12 14 9 7 8 8 6 8 7 8 6 6 5 2 4 3 4 3 4 4 2 2 6 8 6 8 8 6 6 6 6
19 19 19 18 17 16 15 12 12 11 8 11 8 8 9 10 9 8 7 6 7 6 6 5 5 5 5 5 4 4 4 5 4 4 3 11 8 9 9 9 9 8 8
18 19 19 19 18 16 15 14 10 8 10 11 10 11 13 10 9 9 8 7 7 6 6 5 6 5 5 3 5 5 4 4 6 4 4 5 10 9 10 11 11 10 10
17 19 21 20 17 17 16 14 11 10 10 10 9 12 14 12 11 10 8 8 7 7 6 7 7 6 5 5 5 5 5 6 6 6 6 5 7 13 11 11 10 11 11
19 21 20 17 19 18 15 13 10 11 10 10 10 12 16 13 12 10 8 7 7 7 8 7 7 7 5 5 5 5 4 6 7 8 8 7 6 6 11 13 12 12 12
20 20 21 20 20 20 17 12 12 13 12 11 11 11 15 14 12 9 8 8 9 8 7 5 5 4 4 5 5 5 5 6 6 7 9 9 9 8 7 8 11 11 12
18 19 19 18 19 19 13 12 11 11 11 10 10 10 13 11 13 11 9 9 10 8 8 8 8 6 6 5 6 5 6 6 5 7 8 8 7 7 8 8 6 8 15
18 20 21 21 21 16 15 14 13 13 11 10 11 13 13 12 13 12 9 10 10 9 8 9 7 8 6 5 5 7 6 6 6 5 6 6 6 6 5 6 6 6 4
20 21 22 23 22 19 15 13 11 12 11 11 10 11 13 13 12 12 11 9 10 8 7 6 6 3 2 3 4 2 5 6 6 2 3 1 4 3 3 4 6 7 7
21 23 23 24 24 22 20 13 11 10 8 10 11 11 12 13 13 12 11 9 8 7 6 7 6 6 4 2 3 0 2 5 5 6 3 3 5 5 5 6 6 8 9
20 23 24 24 24 22 22 18 21 16 14 11 12 10 10 13 11 11 10 8 7 5 6 5 4 5 3 4 3 3 3 5 4 5 3 3 5 6 5 7 10 10 10
19 20 22 24 24 23 23 21 17 16 11 11 9 11 10 7 9 10 10 10 8 6 5 4 7 7 5 4 2 3 3 2 5 5 8 6 6 6 6 7 7 8 11
15 17 19 23 23 23 23 23 22 20 16 12 13 12 7 7 6 9 11 11 8 9 8 6 5 5 3 2 2 1 2 2 4 5 7 8 8 8 6 7 8 7 7
Wind_Direction
155 140 138 135 133 125 126 133 133 138 141 138 129 132 132 129 125 121 114 107 103 103 105 103 104 105 102 100 97 88 79 69 65 76 76 72 67 63 55 15 332 64 30
154 147 142 138 135 132 129 128 130 134 140 132 127 130 130 126 124 122 115 110 110 110 109 109 108 107 106 106 102 97 94 83 77 87 119 110 77 59 47 30 20 45 28
151 151 154 140 139 138 135 130 132 134 134 130 127 128 130 126 123 119 117 114 112 114 112 112 110 108 107 107 104 104 98 89 83 100 251 75 80 67 60 43 33 27 27
152 155 154 143 143 138 139 134 136 136 132 131 129 130 130 126 123 123 118 112 116 115 115 116 112 110 110 106 102 105 106 87 72 270 218 59 84 73 59 53 41 20 3
153 160 146 148 142 143 141 137 137 133 132 135 133 133 134 132 128 124 115 116 117 119 120 117 113 112 107 103 105 112 119 77 327 264 34 43 51 85 67 37 94 53 19
156 160 143 148 145 147 142 139 138 136 135 135 137 138 134 133 131 127 119 116 120 123 123 119 113 110 108 107 105 103 76 355 284 318 72 110 14 93 84 64 55 44 30
157 158 163 149 151 148 149 144 141 138 137 140 140 137 136 136 133 130 124 121 123 123 124 121 118 114 108 107 101 78 35 321 281 355 301 224 84 109 97 80 65 55 42
158 151 163 158 157 154 152 148 145 143 143 140 142 137 138 139 137 141 136 132 128 127 131 131 128 124 124 111 88 56 16 308 231 298 327 169 103 111 100 86 59 48 41
155 166 163 168 163 152 144 148 145 145 146 146 149 141 142 143 148 150 147 142 142 142 146 141 137 138 139 129 119 41 332 309 291 276 258 240 125 145 138 127 99 59 40
165 167 168 171 172 170 170 156 149 154 152 148 150 145 143 146 156 157 152 152 150 155 154 145 142 143 133 126 94 345 305 260 251 264 220 89 125 174 184 162 128 67 43
172 173 173 172 174 173 174 166 155 162 151 147 154 151 150 173 177 165 162 149 156 158 156 148 145 140 139 136 129 300 285 275 275 242 255 108 157 200 204 220 218 195 353
173 176 174 179 177 175 176 166 176 175 178 179 182 171 182 172 189 193 140 154 162 161 159 152 149 154 204 187 164 206 247 328 251 264 74 115 193 230 238 221 223 240 273
174 176 181 182 178 179 178 174 178 183 184 189 192 182 193 178 172 193 161 175 182 189 188 188 177 211 158 263 194 292 278 238 255 231 101 126 221 253 271 257 232 235 254
180 181 186 183 177 185 178 181 185 188 189 198 192 187 185 190 178 193 184 185 196 179 190 205 181 147 194 196 240 258 241 266 222 217 144 163 219 237 254 271 226 251 264
186 187 187 186 186 185 193 182 187 195 176 196 197 171 203 192 187 190 183 194 200 179 188 193 183 186 172 185 206 232 232 234 245 269 266 165 205 234 245 249 240 247 257
192 190 187 195 193 190 196 186 181 198 180 193 185 185 196 200 185 190 183 197 200 201 192 203 199 196 203 198 205 222 233 239 224 254 255 180 190 227 243 249 254 258 262
195 189 189 190 192 197 197 187 186 190 190 195 189 191 199 202 189 192 190 199 201 197 188 205 204 220 230 217 235 219 225 222 242 240 248 254 190 205 225 237 244 256 263
195 194 188 188 189 194 195 191 190 186 196 192 195 191 203 200 194 194 193 199 205 203 205 210 205 220 224 229 226 252 245 258 236 240 246 255 255 276 195 213 221 233 241
200 193 191 191 193 193 194 197 196 196 203 197 201 195 190 193 192 197 201 200 195 202 202 211 224 245 224 246 265 284 252 237 246 252 257 249 256 269 280 171 203 231 245
203 200 195 193 195 191 192 198 201 200 203 196 200 198 185 193 190 200 206 202 202 202 196 202 221 202 244 253 265 276 271 269 253 258 251 253 265 268 272 274 268 237 212
208 201 200 194 192 188 191 195 198 202 196 198 198 193 194 194 192 197 211 199 209 217 216 208 216 225 231 261 275 261 256 235 246 270 246 244 261 249 262 277 277 280 257
214 206 202 201 192 196 192 198 203 201 195 198 196 192 196 195 192 194 208 206 206 220 218 211 216 218 256 204 291 325 285 281 271 346 327 304 28 324 317 313 319 301 293
211 206 208 203 196 195 195 190 188 188 192 195 193 191 193 193 195 199 205 211 211 221 210 204 203 208 177 132 187 52 285 287 354 260 258 313 340 334 329 304 305 301 298
204 206 205 205 201 194 192 187 189 186 187 192 187 184 184 192 193 201 204 193 178 162 147 139 135 142 118 150 157 196 297 309 282 297 305 295 297 297 306 319 314 302 304
205 205 203 201 201 193 190 192 189 197 189 182 170 157 146 138 146 150 153 135 124 109 117 151 155 176 178 184 185 171 210 243 262 254 285 299 309 297 322 294 304 301 303
195 197 201 200 197 195 192 195 190 194 184 170 167 162 136 128 141 146 147 137 136 146 145 142 125 136 109 117 130 95 287 289 298 293 279 289 312 296 314 310 301 304 320